KESF

Alexandria/Esler Regional Airport

Airport
ICAO code
KESF
IATA Code
ESF
Summary
ICAO Region
NAM
ICAO Territory
Location

Alexandria, Rapides Parish, Louisiana

Serving
Alexandria
Elevation
112 ft
Coordinates
31° 23' 42" N , 92° 17' 45" W
KCC
Metar
KESF 181653Z AUTO 21011KT 10SM FEW024 BKN031 27/21 A3000 RMK AO2 SLP158 T02720211

Description

Esler Regional Airport is a Louisiana Army National Guard Airfield with limited public use and is located 10 nm northeast of the central business district of Alexandria, a city in Rapides Parish, Louisiana, United States.

Climatology

Humid “subtropical” climate (Köppen climate classification Cfa) - characterized by hot, humid summers and cool winters. Significant amounts of precipitation occur in all seasons in most areas. Winter rainfall (and sometimes snowfall) is associated with large storms that the westerlies steer from west to east. Most summer rainfall occurs during thunderstorms and occasional tropical storms (hurricanes).

Airport map

Aerial View

SKYbrary Partners:

Safety knowledge contributed by: